This is the latest recevied weather packets stored in our database for station/object DL4NBA-1. If no packets are shown the sender has not sent any weather packets the latest 1 day(s).
| Time | Temp. | Humidity | Pressure | Rain* | Wind** | Luminosity | Snow |
|---|---|---|---|---|---|---|---|
| 1778114384 | 9.44° C | - | - | 0 mm | 1.79 m/s, 210° | - | - |
| 1778113187 | 10° C | - | - | 0 mm | 3.13 m/s, 249° | - | - |
| 1778112888 | 10° C | - | - | 0 mm | 1.34 m/s, 218° | - | - |
| 1778112291 | 10° C | - | - | 0 mm | 3.13 m/s, 201° | - | - |
| 1778111690 | 10° C | - | - | 0 mm | 2.24 m/s, 193° | - | - |
| 1778110794 | 10° C | - | - | 0 mm | 1.34 m/s, 203° | - | - |
| 1778109295 | 10.56° C | - | - | 0 mm | 1.34 m/s, 238° | - | - |
| 1778107799 | 10.56° C | - | - | 0 mm | 2.24 m/s, 197° | - | - |
| 1778106000 | 10.56° C | - | - | 0 mm | 1.79 m/s, 177° | - | - |
| 1778105104 | 10.56° C | - | - | 0 mm | 0.89 m/s, 172° | - | - |
| 1778104503 | 11.11° C | - | - | 0 mm | 0.45 m/s, 169° | - | - |
| 1778097919 | 11.67° C | - | - | 0 mm | 1.79 m/s, 165° | - | - |
| 1778097017 | 11.67° C | - | - | 0 mm | 0.45 m/s, 188° | - | - |
| 1778096121 | 12.22° C | - | - | 0 mm | 0.89 m/s, 186° | - | - |
| 1778095520 | 12.22° C | - | - | 0 mm | 0.89 m/s, 173° | - | - |
| 1778093725 | 12.22° C | - | - | 0 mm | 1.34 m/s, 190° | - | - |
| 1778092226 | 11.67° C | - | - | 0 mm | 1.79 m/s, 311° | - | - |
| 1778090728 | 11.67° C | - | - | 0 mm | 1.79 m/s, 222° | - | - |
| 1778088932 | 12.78° C | - | - | 0 mm | 1.34 m/s, 204° | - | - |
| 1778088029 | 12.78° C | - | - | 0 mm | 0.89 m/s, 278° | - | - |
| 1778087432 | 12.78° C | - | - | 0 mm | 2.24 m/s, 311° | - | - |
| 1778085936 | 12.22° C | - | - | 0 mm | 2.24 m/s, 4° | - | - |
| 1778084141 | 13.33° C | - | - | 0 mm | 1.79 m/s, 139° | - | - |
| 1778083239 | 13.89° C | - | - | 0 mm | 1.79 m/s, 270° | - | - |
| 1778081143 | 18.89° C | - | - | 0 mm | 2.24 m/s, 129° | - | - |
* Rain latest hour (hover to see other rain measurements)
** Current wind speed in m/s (hover to see current wind gust speed)